Flag for Afghanistan Weather past 2 weeks in Mazari Sharif, Afghanistan

Now
61 °F

Broken clouds.


Feels Like: 61 °F
Forecast: 46 / 64 °F
Wind: 6 mph from North

Location: Termez Airport

Current Time: Mar 4, 2015 at 4:16:46 PM

Latest Report: Mar 4, 2015 at 3:00 PM


Visibility: N/A

Pressure: 29.95 "Hg

Humidity: 45%

Dew point: 39 °F

Location of Mazari SharifLocation

Historic Weather in Mazari Sharif — Graph

°F

Mazari Sharif temperature yesterday

Maximum temperature yesterday: 64 °F (at 2:00 PM)
Minimum temperature yesterday: 39 °F (at 4:00 AM)
Average temperature yesterday: 53 °F

Past Weeks' High & Low Weather Summary

 TemperatureHumidityPressure
High73 °F (Feb 22, 2:30 PM)100% (Feb 17, 6:30 PM)30.42 "Hg (Feb 17, 6:30 PM)
Low30 °F (Feb 28, 6:30 AM)34% (Mar 3, 4:00 PM)29.74 "Hg (Feb 22, 3:30 AM)
Average47 °F81%30.08 "Hg
* Reported Feb 17 2:30 PM — Mar 4 2:30 PM, Mazari Sharif, Weather by CustomWeather, © 2015

Note: Actual official high and low records may vary slightly from our data, if they occured in-between our weather recording intervals... More about our weather records

Advertising

Mazari Sharif weather history for previous 24 hours

 ConditionsComfort  
Time TempWeatherWind HumidityBarometerVisibility
2:30 PM
Wed, Mar 4
59 °FBroken clouds.2 mph45%29.95 "HgN/A
2:00 PM59 °FPartly sunny.6 mph51%29.95 "HgN/A
1:30 PM57 °FPartly sunny.5 mph51%29.95 "HgN/A
1:00 PM57 °FMostly cloudy.6 mph51%29.95 "HgN/A
12:30 PM57 °FMostly cloudy.8 mph55%29.95 "HgN/A
12:00 PM55 °FMostly cloudy.9 mph59%29.95 "HgN/A
11:30 AM55 °FMostly cloudy.10 mph63%29.95 "HgN/A
11:00 AM54 °FMostly cloudy.13 mph67%29.98 "HgN/A
10:30 AM54 °FMostly cloudy.12 mph67%29.98 "HgN/A
10:00 AM52 °FMostly cloudy.8 mph67%29.98 "HgN/A
9:30 AM50 °FMostly cloudy.6 mph67%29.98 "HgN/A
9:00 AM50 °FMostly cloudy.6 mph71%29.98 "HgN/A
8:30 AM48 °FMostly cloudy.8 mph76%29.98 "HgN/A
8:00 AM46 °FMore clouds than sun.3 mph76%29.95 "HgN/A
7:00 AM46 °FMore clouds than sun.3 mph76%29.95 "HgN/A
6:30 AM46 °FMore clouds than sun.1 mph76%29.92 "HgN/A
6:00 AM46 °FMostly cloudy.2 mph71%29.92 "HgN/A
5:30 AM46 °FMostly cloudy.3 mph71%29.92 "HgN/A
5:00 AM48 °FMostly cloudy.8 mph66%29.92 "HgN/A
4:30 AM48 °FPartly cloudy.9 mph66%29.92 "HgN/A
4:00 AM48 °FPartly cloudy.10 mph66%29.92 "HgN/A
3:30 AM48 °FPartly cloudy.12 mph66%29.92 "HgN/A
3:00 AM48 °FPartly cloudy.12 mph66%29.92 "HgN/A
2:30 AM48 °FPartly cloudy.12 mph66%29.92 "HgN/A
2:00 AM48 °FPartly cloudy.12 mph66%29.95 "HgN/A
1:30 AM48 °FPartly cloudy.14 mph66%29.95 "HgN/A
1:00 AM48 °FPassing clouds.15 mph66%29.95 "HgN/A
12:30 AM48 °FPassing clouds.15 mph66%29.98 "HgN/A
12:00 AM48 °FPassing clouds.12 mph71%29.98 "HgN/A
11:30 PM
Tue, Mar 3
48 °FPassing clouds.13 mph71%29.98 "HgN/A
11:00 PM50 °FPassing clouds.13 mph67%30.01 "HgN/A
10:30 PM50 °FPassing clouds.14 mph67%30.01 "HgN/A
10:00 PM50 °FPassing clouds.15 mph67%30.01 "HgN/A
9:30 PM52 °FPassing clouds.16 mph62%30.01 "HgN/A
9:00 PM52 °FPassing clouds.16 mph62%30.01 "HgN/A
8:30 PM52 °FPassing clouds.17 mph62%30.01 "HgN/A
8:00 PM52 °FClear.18 mph62%30.01 "Hg10 mi
7:30 PM54 °FClear.14 mph63%30.01 "Hg10 mi
7:00 PM55 °FPassing clouds.9 mph59%30.01 "HgN/A
6:30 PM55 °FPassing clouds.6 mph55%29.98 "HgN/A
6:00 PM59 °FPartly cloudy.6 mph45%29.98 "HgN/A
5:30 PM61 °FBroken clouds.5 mph42%29.98 "HgN/A
5:00 PM63 °FScattered clouds.2 mph34%29.98 "HgN/A
4:30 PM64 °FPassing clouds.1 mph37%29.95 "HgN/A
4:00 PM64 °FPassing clouds.2 mph34%29.95 "HgN/A
Weather by CustomWeather, © 2015

See weather overviewHow to use our weather pages